Waarnemingen

Advertentie
Mijn weer
Manschnow, Duitsland (10396): temperatuur & dauwpunt: 19.02.2018 06:00:00 - 25.02.2018 06:00:00 (CET)Manschnow, Duitsland (10396): temperatuur 5cm & temperatuur -5cm: 19.02.2018 06:00:00 - 25.02.2018 06:00:00 (CET)Manschnow, Duitsland (10396): temperatuur -20cm & temperatuur -100cm: 19.02.2018 06:00:00 - 25.02.2018 06:00:00 (CET)Manschnow, Duitsland (10396): windsnelheid & windstoten: 19.02.2018 06:00:00 - 25.02.2018 06:00:00 (CET)Manschnow, Duitsland (10396): windrichting: 19.02.2018 06:00:00 - 25.02.2018 06:00:00 (CET)Manschnow, Duitsland (10396): luchtdruk: 19.02.2018 06:00:00 - 25.02.2018 06:00:00 (CET)Manschnow, Duitsland (10396): zicht: 19.02.2018 06:00:00 - 25.02.2018 06:00:00 (CET)Manschnow, Duitsland (10396): Zonneschijnduur: 19.02.2018 06:00:00 - 25.02.2018 06:00:00 (CET)Manschnow, Duitsland (10396): neerslag: 19.02.2018 06:00:00 - 25.02.2018 06:00:00 (CET)
Datum & Tijd tt [°C] td [°C] tt 5cm [°C] tt -5cm [°C] tt -20cm [°C] tt -100cm [°C] ff [km/u] ff [kn] fx [km/u] fx [kn] dd ppp [hPa] vv [km] sd [min] rr [mm]
25.02.2018 06:00:00 -10,1 -11,5 -12,1 -4,4 0,2 4,1 5 3 10 6 NNO 1033,5 11 0 0,0
25.02.2018 05:00:00 -9,4 -11,4 -11,3 -4,2 0,3 4,1 6 4 12 6 N 1033,7 23 0 0,0
25.02.2018 04:00:00 -8,7 -11,3 -10,3 -4,0 0,3 4,1 7 4 11 6 NO 1033,4 24 0 0,0
25.02.2018 03:00:00 -8,4 -11,3 -10,3 -3,7 0,3 4,1 7 4 16 8 NNO 1033,4 24 0 0,0
25.02.2018 02:00:00 -7,2 -11,1 -9,0 -3,5 0,4 4,1 8 4 15 8 NO 1033,7 32 0 0,0
25.02.2018 01:00:00 -7,5 -11,5 -10,0 -3,3 0,4 4,1 5 3 9 5 NNO 1033,8 17 0 0,0
25.02.2018 00:00:00 -6,6 -11,8 -9,2 -3,0 0,4 4,1 6 3 18 10 NO 1033,7 35 0 0,0
24.02.2018 23:00:00 -5,7 -11,7 -7,3 -2,7 0,4 4,1 9 5 24 13 NO 1033,5 38 0 0,0
24.02.2018 22:00:00 -5,1 -11,5 -6,8 -2,2 0,4 4,1 13 7 28 15 ONO 1033,1 33 0 0,0
24.02.2018 21:00:00 -4,4 -11,2 -5,9 -1,6 0,5 4,1 13 7 21 11 ONO 1033,0 40 0 0,0
24.02.2018 20:00:00 -3,8 -10,8 -5,6 -0,9 0,5 4,1 10 5 21 12 NO 1032,5 46 0 0,0
24.02.2018 19:00:00 -2,9 -10,8 -4,6 -0,1 0,5 4,1 13 7 28 15 NO 1032,2 58 0 0,0
24.02.2018 18:00:00 -2,0 -11,1 -3,1 0,0 0,5 4,1 14 7 26 14 NNO 1031,6 55 11 0,0
24.02.2018 17:00:00 -1,6 -11,7 -1,6 -0,1 0,5 4,1 14 8 28 15 ONO 1031,2 69 52 0,0
24.02.2018 16:00:00 -1,1 -10,6 0,2 -0,1 0,5 4,1 19 10 32 18 O 1031,0 42 46 0,0
24.02.2018 15:00:00 -0,7 -11,1 2,3 -0,1 0,5 4,1 14 8 36 20 NO 1030,9 36 50 0,0
24.02.2018 14:00:00 -0,5 -10,0 2,3 -0,2 0,5 4,1 16 9 33 18 ONO 1030,7 38 15 0,0
24.02.2018 13:00:00 -1,0 -10,1 1,0 -0,3 0,5 4,1 16 9 36 20 NNO 1030,6 38 49 0,0
24.02.2018 12:00:00 -1,6 -10,4 -0,5 -0,4 0,5 4,1 20 11 37 20 NO 1030,5 58 22 0,0
24.02.2018 11:00:00 -2,0 -9,3 -1,9 -0,4 0,5 4,1 19 10 38 20 NNO 1030,3 63 20 0,0
24.02.2018 10:00:00 -1,6 -9,2 -1,4 -0,5 0,5 4,1 21 12 42 23 NNO 1030,0 33 53 0,0
24.02.2018 09:00:00 -1,6 -8,5 -0,1 -1,1 0,5 4,1 15 8 27 15 NNO 1029,8 49 60 0,0
24.02.2018 08:00:00 -2,7 -7,6 -2,8 -1,8 0,5 4,1 9 5 20 11 N 1029,4 58 38 0,0
24.02.2018 07:00:00 -2,7 -7,6 -4,8 -1,6 0,5 4,1 13 7 27 14 NNO 1028,9 65 0 0,0
24.02.2018 06:00:00 -2,5 -4,8 -4,0 -1,0 0,6 4,1 10 6 21 12 NNO 1028,5 17 0 0,0
24.02.2018 05:00:00 -3,3 -4,6 -3,5 -0,9 0,6 4,1 5 3 11 6 NNW 1028,1 10 0 0,0
24.02.2018 04:00:00 -3,9 -5,6 -4,1 -1,0 0,6 4,1 5 3 11 6 NW 1027,7 10 0 0,0
24.02.2018 03:00:00 -4,9 -6,8 -4,9 -1,2 0,6 4,1 6 3 9 5 WNW 1027,8 11 0 0,0
24.02.2018 02:00:00 -6,6 -7,9 -8,4 -1,6 0,7 4,2 5 3 8 4 W 1028,0 10 0 0,0
24.02.2018 01:00:00 -6,3 -7,6 -8,0 -1,3 0,7 4,2 6 4 8 4 W 1028,0 9 0 0,0
24.02.2018 00:00:00 -6,0 -7,7 -8,4 -1,1 0,7 4,2 5 3 8 4 W 1028,3 10 0 0,0
23.02.2018 23:00:00 -5,6 -8,2 -8,1 -0,8 0,7 4,2 2 1 8 5 WNW 1028,0 12 0 0,0
23.02.2018 22:00:00 -4,6 -8,6 -7,6 -0,4 0,7 4,2 5 3 8 4 N 1027,9 13 0 0,0
23.02.2018 21:00:00 -4,1 -8,8 -6,8 0,0 0,7 4,2 4 2 11 6 N 1027,7 14 0 0,0
23.02.2018 20:00:00 -3,4 -9,2 -5,4 0,0 0,7 4,2 5 3 11 6 N 1027,5 18 0 0,0
23.02.2018 19:00:00 -2,8 -9,8 -4,8 0,0 0,7 4,2 6 4 11 6 NNO 1027,3 20 0 0,0
23.02.2018 18:00:00 -2,0 -10,2 -3,5 0,0 0,7 4,2 6 3 12 6 NNO 1027,2 20 16 0,0
23.02.2018 17:00:00 -1,2 -8,8 -1,0 0,0 0,7 4,2 8 5 18 10 O 1027,0 19 60 0,0
23.02.2018 16:00:00 -1,2 -8,6 -0,6 0,1 0,7 4,2 13 7 19 10 O 1027,1 13 60 0,0
23.02.2018 15:00:00 -1,1 -7,7 1,1 0,0 0,8 4,2 10 5 18 10 O 1027,1 10 60 0,0
23.02.2018 14:00:00 -1,9 -8,3 1,4 -0,1 0,8 4,2 11 6 22 12 O 1027,5 8 60 0,0
23.02.2018 13:00:00 -2,2 -7,6 0,9 -0,1 0,8 4,2 13 7 24 13 O 1027,8 9 60 0,0
23.02.2018 12:00:00 -3,0 -7,8 -0,1 -0,2 0,8 4,2 14 8 23 12 O 1028,1 9 60 0,0
23.02.2018 11:00:00 -4,2 -8,2 -1,2 -0,3 0,8 4,2 11 6 19 11 ONO 1028,2 7 60 0,0
23.02.2018 10:00:00 -4,9 -8,1 -2,8 -0,6 0,9 4,2 13 7 21 12 O 1027,9 6 60 0,0
23.02.2018 09:00:00 -5,7 -8,0 -4,3 -1,1 0,9 4,2 15 8 23 12 O 1027,7 6 60 0,0
23.02.2018 08:00:00 -6,8 -8,5 -6,9 -1,5 1,0 4,2 8 4 14 7 NO 1027,5 6 8 0,0
23.02.2018 07:00:00 -7,1 -8,5 -8,5 -1,4 1,1 4,2 6 3 15 8 NO 1026,9 6 0 0,0
23.02.2018 06:00:00 -6,6 -8,3 -7,7 -1,1 1,1 4,2 10 6 18 10 ONO 1026,6 6 0 0,0
23.02.2018 05:00:00 -6,1 -7,6 -7,4 -0,7 1,2 4,2 9 5 20 11 ONO 1026,3 7 0 0,0
23.02.2018 04:00:00 -5,5 -7,4 -6,6 -0,4 1,3 4,2 10 5 21 12 ONO 1026,1 7 0 0,0
23.02.2018 03:00:00 -4,9 -7,6 -5,8 -0,1 1,3 4,2 14 8 23 12 O 1026,3 9 0 0,0
23.02.2018 02:00:00 -4,2 -7,1 -5,2 0,1 1,4 4,2 13 7 21 12 O 1026,4 10 0 0,0
23.02.2018 01:00:00 -3,7 -6,7 -4,9 0,3 1,5 4,2 12 7 19 10 O 1026,4 12 0 0,0
23.02.2018 00:00:00 -3,0 -7,3 -4,4 0,4 1,5 4,2 12 7 22 12 O 1026,6 18 0 0,0
22.02.2018 23:00:00 -2,1 -6,1 -3,1 0,4 1,6 4,2 13 7 20 11 O 1026,5 16 0 0,0
22.02.2018 22:00:00 -1,5 -5,5 -2,7 0,5 1,7 4,2 8 5 14 7 O 1026,3 15 0 0,0
22.02.2018 21:00:00 -0,8 -4,5 -1,3 0,6 1,8 4,2 10 5 16 9 O 1026,0 13 0 0,0
22.02.2018 20:00:00 -0,3 -4,8 -0,9 0,6 2,0 4,2 9 5 16 9 ONO 1026,1 15 0 0,0
22.02.2018 19:00:00 0,4 -4,9 -0,5 0,7 2,1 4,2 8 4 14 8 ONO 1025,8 17 0 0,0
22.02.2018 18:00:00 0,7 -4,7 -0,2 1,3 2,2 4,2 8 4 17 9 ONO 1025,6 24 0 0,0
22.02.2018 17:00:00 1,2 -5,2 0,7 2,3 2,2 4,2 10 6 18 10 ONO 1025,6 38 0 0,0
22.02.2018 16:00:00 1,6 -5,2 1,7 3,6 2,1 4,2 10 6 18 10 ONO 1025,6 50 1 0,0
22.02.2018 15:00:00 2,1 -5,8 3,8 4,4 1,8 4,2 11 6 23 12 ONO 1025,7 52 13 0,0
22.02.2018 14:00:00 2,4 -4,0 5,3 4,9 1,3 4,2 17 9 23 12 O 1026,2 40 53 0,0
22.02.2018 13:00:00 2,2 -5,0 4,7 3,1 1,0 4,2 15 8 23 12 O 1026,7 28 60 0,0
22.02.2018 12:00:00 1,5 -6,1 4,0 0,1 1,0 4,2 13 7 18 10 ONO 1026,9 18 60 0,0
22.02.2018 11:00:00 0,5 -3,6 2,8 0,1 1,0 4,2 10 5 18 10 O 1027,0 12 60 0,0
22.02.2018 10:00:00 -0,3 -3,7 1,0 0,1 1,1 4,2 8 4 12 6 O 1027,1 11 60 0,0
22.02.2018 09:00:00 -2,1 -4,7 0,9 0,0 1,1 4,2 6 3 11 6 NNO 1027,1 10 60 0,0
22.02.2018 08:00:00 -3,1 -4,3 -3,6 0,1 1,1 4,2 7 4 11 6 ONO 1026,8 8 25 0,0
22.02.2018 07:00:00 -3,9 -4,5 -6,7 0,2 1,2 4,2 0 0 10 6 N 1026,6 8 0 0,0
22.02.2018 06:00:00 -2,8 -4,3 -4,3 0,2 1,2 4,2 8 4 14 7 O 1026,5 9 0 0,0
22.02.2018 05:00:00 -2,2 -4,0 -3,8 0,3 1,2 4,2 6 4 12 7 ONO 1026,3 13 0 0,0
22.02.2018 04:00:00 -1,4 -3,7 -2,2 0,3 1,3 4,2 8 5 14 7 ONO 1026,5 15 0 0,0
22.02.2018 03:00:00 -1,0 -3,3 -1,7 0,3 1,3 4,2 5 3 16 8 NO 1026,7 16 0 0,0
22.02.2018 02:00:00 -0,6 -3,1 -1,1 0,4 1,3 4,2 8 4 14 8 ONO 1026,8 17 0 0,0
22.02.2018 01:00:00 -0,7 -2,9 -1,7 0,4 1,4 4,2 6 4 11 6 ONO 1026,9 15 0 0,0
22.02.2018 00:00:00 -0,1 -2,6 -1,3 0,4 1,4 4,2 6 3 16 9 NO 1026,8 15 0 0,0
21.02.2018 23:00:00 0,4 -2,9 -0,1 0,4 1,5 4,2 8 5 14 8 NNO 1026,8 16 0 0,0
21.02.2018 22:00:00 0,3 -3,0 -0,3 0,5 1,5 4,2 5 3 10 5 NNO 1026,8 10 0 0,0
21.02.2018 21:00:00 0,4 -3,3 -1,2 0,5 1,6 4,2 4 2 7 4 NNO 1026,4 10 0 0,0
21.02.2018 20:00:00 0,6 -3,8 -0,9 0,6 1,7 4,2 6 3 11 6 NNO 1026,2 14 0 0,0
21.02.2018 19:00:00 0,7 -4,0 -1,7 0,7 1,9 4,2 7 4 13 7 NNO 1026,0 18 0 0,0
21.02.2018 18:00:00 1,3 -3,8 -0,6 1,1 2,0 4,2 7 4 25 13 NNO 1025,8 13 0 0,0
21.02.2018 17:00:00 2,5 -4,1 1,6 2,5 1,9 4,2 11 6 27 14 N 1025,4 18 11 0,0
21.02.2018 16:00:00 3,6 -3,5 5,1 3,7 1,6 4,2 12 7 24 13 N 1025,2 33 32 0,0
21.02.2018 15:00:00 3,6 -2,2 4,4 3,9 1,2 4,2 4 2 15 8 O 1025,4 22 29 0,0
21.02.2018 14:00:00 3,7 -3,2 6,8 3,1 0,9 4,2 7 4 16 8 ONO 1025,8 21 55 0,0
21.02.2018 13:00:00 3,0 -3,0 5,4 0,4 0,9 4,2 8 4 17 9 ONO 1025,9 18 59 0,0
21.02.2018 12:00:00 2,3 -1,3 4,9 0,0 0,9 4,2 9 5 19 11 O 1026,0 12 60 0,0
21.02.2018 11:00:00 1,1 -2,9 3,2 -0,1 0,9 4,2 11 6 21 11 ONO 1026,2 11 60 0,0
21.02.2018 10:00:00 0,4 -2,3 1,5 -0,1 1,0 4,2 12 7 21 11 ONO 1026,2 12 60 0,0
21.02.2018 09:00:00 -0,5 -2,6 1,2 -0,2 1,0 4,2 7 4 16 8 NO 1025,9 7 43 0,0
21.02.2018 08:00:00 -2,8 -4,0 -2,8 -0,6 1,1 4,2 6 3 11 6 NNO 1025,5 7 7 0,0
21.02.2018 07:00:00 -3,5 -4,4 -6,1 -0,6 1,1 4,2 7 4 11 6 NNO 1025,3 5 0 0,0
21.02.2018 06:00:00 -3,2 -4,4 -5,8 -0,5 1,2 4,2 6 3 10 6 ONO 1024,5 9 0 0,0
21.02.2018 05:00:00 -2,7 -4,4 -4,5 -0,3 1,2 4,2 7 4 13 7 NO 1024,8 9 0 0,0
21.02.2018 04:00:00 -2,6 -4,5 -4,8 -0,1 1,3 4,2 7 4 11 6 NO 1024,7 10 0 0,0
21.02.2018 03:00:00 -2,5 -4,5 -4,9 0,0 1,3 4,2 7 4 11 6 NO 1024,5 10 0 0,0
21.02.2018 02:00:00 -2,1 -4,6 -4,3 0,1 1,4 4,2 7 4 12 6 NO 1024,3 10 0 0,0
21.02.2018 01:00:00 -2,1 -4,9 -4,0 0,2 1,5 4,1 8 4 13 7 NNO 1024,0 10 0 0,0
21.02.2018 00:00:00 -2,1 -4,7 -4,8 0,3 1,5 4,1 6 4 10 5 NNO 1023,7 10 0 0,0
20.02.2018 23:00:00 -1,8 -4,7 -4,4 0,4 1,6 4,1 7 4 9 5 NNO 1023,5 7 0 0,0
20.02.2018 22:00:00 -1,7 -4,8 -4,7 0,4 1,7 4,1 6 3 10 5 NNO 1023,1 8 0 0,0
20.02.2018 21:00:00 -1,0 -4,5 -4,4 0,5 1,8 4,1 5 3 12 7 NNO 1022,9 6 0 0,0
20.02.2018 20:00:00 -0,5 -3,9 -3,9 0,6 1,9 4,1 6 3 15 8 NNO 1022,7 7 0 0,0
20.02.2018 19:00:00 0,5 -3,7 -1,5 0,7 2,1 4,1 7 4 20 11 NO 1022,2 9 0 0,0
20.02.2018 18:00:00 1,4 -3,2 -0,5 0,9 2,2 4,1 10 5 21 12 O 1021,7 11 11 0,0
20.02.2018 17:00:00 2,7 -4,1 1,4 2,1 2,2 4,1 13 7 25 13 ONO 1021,1 24 60 0,0
20.02.2018 16:00:00 3,4 -5,2 4,3 3,3 2,0 4,1 14 8 28 15 ONO 1020,8 26 60 0,0
20.02.2018 15:00:00 3,6 -4,9 5,2 4,2 1,6 4,1 18 10 31 17 ONO 1020,6 15 60 0,0
20.02.2018 14:00:00 3,6 -5,5 5,3 3,5 1,3 4,1 15 8 23 12 ONO 1020,6 26 60 0,0
20.02.2018 13:00:00 3,3 -4,3 5,5 0,2 1,2 4,1 14 8 27 14 ONO 1020,7 16 60 0,0
20.02.2018 12:00:00 2,0 -3,4 3,9 0,2 1,3 4,1 14 7 24 13 ONO 1021,0 9 60 0,0
20.02.2018 11:00:00 0,6 -3,5 2,2 0,2 1,3 4,1 13 7 24 13 ONO 1021,1 8 60 0,0
20.02.2018 10:00:00 -0,8 -3,4 0,3 0,1 1,3 4,1 12 6 23 12 O 1021,4 6 50 0,0
20.02.2018 09:00:00 -1,7 -3,4 -1,9 0,1 1,4 4,1 13 7 24 13 O 1021,2 5 33 0,0
20.02.2018 08:00:00 -1,9 -3,4 -2,5 0,2 1,4 4,1 13 7 26 14 O 1020,9 5 0 0,0
20.02.2018 07:00:00 -1,9 -3,5 -3,0 0,2 1,5 4,1 15 8 22 12 O 1020,6 4,8 0 0,0
20.02.2018 06:00:00 -1,4 -3,2 -2,3 0,3 1,6 4,1 13 7 21 12 O 1020,4 4,9 0 0,0
20.02.2018 05:00:00 -1,3 -3,2 -2,2 0,3 1,6 4,1 13 7 20 11 O 1020,4 5 0 0,0
20.02.2018 04:00:00 -1,2 -3,2 -2,4 0,4 1,7 4,1 12 6 22 12 O 1020,4 5 0 0,0
20.02.2018 03:00:00 -1,0 -3,1 -2,1 0,4 1,8 4,1 13 7 20 11 ONO 1020,4 5 0 0,0
20.02.2018 02:00:00 -0,8 -2,7 -1,8 0,4 1,9 4,1 12 6 19 10 ONO 1020,4 5 0 0,0
20.02.2018 01:00:00 -0,7 -2,8 -1,4 0,5 2,0 4,1 12 6 20 11 O 1020,5 6 0 0,0
20.02.2018 00:00:00 -0,4 -2,7 -1,1 0,5 2,1 4,1 11 6 16 9 O 1020,9 6 0 0,0
19.02.2018 23:00:00 -0,2 -2,6 -1,0 0,5 2,3 4,1 11 6 17 9 O 1020,8 6 0 0,0
19.02.2018 22:00:00 0,2 -2,6 -0,9 0,4 2,5 4,1 10 5 16 9 O 1020,9 7 0 0,0
19.02.2018 21:00:00 0,5 -2,7 -0,9 0,5 2,8 4,1 9 5 12 6 O 1021,1 10 0 0,0
19.02.2018 20:00:00 1,3 -3,1 -0,3 1,2 3,0 4,1 8 4 11 6 O 1021,2 11 0 0,0
19.02.2018 19:00:00 1,3 -2,2 -0,5 1,8 3,2 4,1 8 4 15 8 O 1021,1 9 0 0,0
19.02.2018 18:00:00 1,5 -0,8 -1,0 2,8 3,4 4,1 5 3 11 6 OZO 1021,1 13 0 0,0
19.02.2018 17:00:00 3,2 -1,5 2,2 4,2 3,4 4,1 6 3 11 6 ZZO 1021,2 14 0 0,0
19.02.2018 16:00:00 4,0 -1,5 3,8 5,5 3,3 4,1 8 5 13 7 ZZO 1021,2 16 0 0,0
19.02.2018 15:00:00 4,3 -2,5 5,3 6,4 2,9 4,0 10 5 16 9 OZO 1021,4 21 31 0,0
19.02.2018 14:00:00 4,5 -2,1 7,1 7,2 2,5 4,0 11 6 18 10 ZZO 1021,8 16 56 0,0
19.02.2018 13:00:00 3,9 -1,9 6,4 6,1 2,0 4,0 10 5 16 9 ZZO 1022,3 14 41 0,0
19.02.2018 12:00:00 2,9 -2,3 4,6 4,8 1,6 4,0 10 6 16 9 ZZO 1023,1 14 17 0,0
19.02.2018 11:00:00 2,2 -2,2 4,5 4,0 1,3 4,0 12 6 17 9 Z 1023,4 14 60 0,0
19.02.2018 10:00:00 1,1 -2,4 2,0 1,6 1,2 4,0 9 5 16 9 ZZO 1023,8 15 0 0,0
19.02.2018 09:00:00 0,6 -2,1 0,8 0,7 1,2 4,0 9 5 14 7 ZZO 1024,1 14 0 0,0
19.02.2018 08:00:00 0,1 -2,2 -0,4 0,0 1,3 4,0 10 6 15 8 ZZO 1024,2 12 0 0,0
19.02.2018 07:00:00 0,2 -2,2 -0,3 0,1 1,4 4,0 9 5 14 7 ZZO 1024,2 12 0 0,0
19.02.2018 06:00:00 0,5 -2,2 -0,1 0,2 1,4 4,0 9 5 15 8 ZO 1024,4 14 0 0,0

tt = temperatuur
td = dauwpunt
tt 5cm = temperatuur 5cm
tt -5cm = temperatuur -5cm
tt -20cm = temperatuur -20cm
tt -100cm = temperatuur -100cm
ff = windsnelheid
fx = windstoten
dd = windrichting
ppp = luchtdruk
vv = zicht
sd = Zonneschijnduur
rr = neerslag

Weerstations in de omgeving